Location: Glenbow
(51.1592°N, 114.3828°W)
Time: 10:46:21
(UTC+00:00)

Envisat - Pass Details

Date: 09 December 2021
Orbit: 764 x 766 km, 98.2° (Epoch: 25 January)

Event Time Altitude Azimuth Distance (km) Brightness Sun altitude
Rises 14:04:07 0° 7° (N) 3,247 6.1 -12.5°
Reaches altitude 10° 14:06:43 10° 355° (N) 2,316 5.2 -12.2°
Maximum altitude 14:10:55 27° 300° (WNW) 1,460 3.9 -11.5°
Drops below altitude 10° 14:15:06 10° 244° (WSW) 2,303 5.1 -10.9°
Sets 14:17:42 0° 232° (SW) 3,224 5.9 -10.6°
